Location: Lane
(33.5226°N, 79.8788°W)
Time: 08:32:48
(UTC+00:00)

Vanguard 2 - Pass Details

Date: 07 October 2022
Orbit: 553 x 2932 km, 32.9° (Epoch: 08 December)

Event Time Altitude Azimuth Distance (km) Brightness Sun altitude
Rises 20:04:16 0° 277° (W) 4,978 12.3 32.6°
Reaches altitude 10° 20:07:03 10° 276° (W) 4,254 12.1 32.1°
Maximum altitude 20:19:40 83° 191° (SSW) 2,555 10.8 29.9°
Drops below altitude 10° 20:37:32 10° 107° (ESE) 5,760 11.7 26.7°
Sets 20:42:02 0° 106° (ESE) 6,755 11.9 25.8°
